TimeCST,TemperatureF,Dew PointF,Humidity,Sea Level PressureIn,VisibilityMPH,Wind Direction,Wind SpeedMPH,Gust SpeedMPH,PrecipitationIn,Events,Conditions,WindDirDegrees,DateUTC
12:53 AM,21.9,19.9,92,30.25,5.0,NW,4.6,-,N/A,,Clear,320,2013-12-15 06:53:00
1:53 AM,19.9,19.0,96,30.27,5.0,WSW,4.6,-,N/A,,Clear,240,2013-12-15 07:53:00
2:53 AM,19.9,19.0,96,30.26,5.0,WNW,3.5,-,N/A,,Clear,290,2013-12-15 08:53:00
3:53 AM,19.9,18.0,92,30.27,4.0,WSW,3.5,-,N/A,,Clear,240,2013-12-15 09:53:00
4:53 AM,18.0,16.0,92,30.26,4.0,South,3.5,-,N/A,,Clear,190,2013-12-15 10:53:00
5:00 AM,17.6,15.8,93,30.22,4.0,SW,4.6,-,N/A,,Scattered Clouds,220,2013-12-15 11:00:00
5:14 AM,19.4,17.6,93,30.22,2.5,SSW,5.8,-,N/A,,Mostly Cloudy,210,2013-12-15 11:14:00
5:20 AM,19.4,17.6,93,30.22,0.8,SW,6.9,-,N/A,,Mist,230,2013-12-15 11:20:00
5:35 AM,19.4,17.6,93,30.21,0.2,SSW,6.9,-,N/A,Fog,Light Freezing Fog,210,2013-12-15 11:35:00
5:53 AM,19.0,18.0,96,30.25,0.5,SSW,5.8,-,N/A,Fog,Light Freezing Fog,200,2013-12-15 11:53:00
6:04 AM,19.4,17.6,93,30.21,2.0,SW,4.6,-,N/A,,Mostly Cloudy,220,2013-12-15 12:04:00
6:12 AM,19.4,17.6,93,30.22,2.5,SW,3.5,-,N/A,,Scattered Clouds,230,2013-12-15 12:12:00
6:19 AM,19.4,17.6,93,30.22,3.0,SW,3.5,-,N/A,,Partly Cloudy,220,2013-12-15 12:19:00
6:53 AM,19.0,18.0,96,30.27,3.0,SSW,3.5,-,N/A,,Clear,200,2013-12-15 12:53:00
7:32 AM,19.4,17.6,93,30.24,2.5,SW,3.5,-,N/A,,Clear,230,2013-12-15 13:32:00
7:51 AM,21.2,19.4,93,30.24,3.0,SSW,4.6,-,N/A,,Clear,210,2013-12-15 13:51:00
7:53 AM,21.0,19.0,92,30.27,3.0,SSW,4.6,-,N/A,,Clear,200,2013-12-15 13:53:00
8:53 AM,24.1,21.9,91,30.28,3.0,SSW,5.8,-,N/A,,Clear,210,2013-12-15 14:53:00
9:53 AM,27.0,25.0,92,30.29,5.0,SSW,6.9,-,N/A,,Clear,200,2013-12-15 15:53:00
10:53 AM,34.0,27.0,75,30.27,9.0,SW,6.9,-,N/A,,Clear,220,2013-12-15 16:53:00
11:53 AM,39.0,28.0,65,30.24,10.0,SW,10.4,-,N/A,,Clear,220,2013-12-15 17:53:00
12:53 PM,43.0,30.0,60,30.21,10.0,SW,10.4,-,N/A,,Clear,220,2013-12-15 18:53:00
1:53 PM,46.0,30.9,56,30.17,10.0,SW,11.5,-,N/A,,Clear,220,2013-12-15 19:53:00
2:53 PM,48.0,30.9,52,30.17,10.0,SSW,11.5,-,N/A,,Clear,210,2013-12-15 20:53:00
3:53 PM,48.0,30.0,50,30.16,10.0,SW,10.4,-,N/A,,Clear,230,2013-12-15 21:53:00
4:53 PM,44.1,30.0,58,30.16,10.0,SSW,6.9,-,N/A,,Clear,210,2013-12-15 22:53:00
5:53 PM,42.1,30.0,62,30.16,10.0,SSW,6.9,-,N/A,,Clear,210,2013-12-15 23:53:00
6:53 PM,37.9,30.0,73,30.15,10.0,South,8.1,-,N/A,,Clear,190,2013-12-16 00:53:00
7:53 PM,37.0,30.0,76,30.16,10.0,SSW,5.8,-,N/A,,Clear,200,2013-12-16 01:53:00
8:53 PM,36.0,28.9,76,30.15,10.0,SSW,6.9,-,N/A,,Clear,200,2013-12-16 02:53:00
9:53 PM,41.0,30.0,65,30.15,10.0,SSW,9.2,-,N/A,,Clear,210,2013-12-16 03:53:00
10:53 PM,39.9,30.0,68,30.15,10.0,SW,8.1,-,N/A,,Clear,220,2013-12-16 04:53:00
11:53 PM,39.0,30.0,70,30.14,10.0,SSW,11.5,-,N/A,,Clear,210,2013-12-16 05:53:00